| time (UTC) | temp F | wind direction | speed knots | gust knots | rain 1hr in | rain 24hr in | rain mn in | humidity % | barometer mb |
| 20260507030029 | 62 | 23 | 0.9 | 7.0 | 0.00 | 0.00 | 0.00 | 75 | 1019.7 |
| 20260507024527 | 63 | 37 | 0.9 | 6.1 | 0.00 | 0.00 | 0.00 | 74 | 1019.5 |
| 20260507023025 | 64 | 337 | 0.0 | 5.2 | 0.00 | 0.00 | 0.00 | 75 | 1019.4 |
| 20260507021523 | 65 | 42 | 0.0 | 2.6 | 0.00 | 0.00 | 0.00 | 74 | 1019.3 |
| 20260507020024 | 65 | 17 | 0.0 | 3.5 | 0.00 | 0.00 | 0.00 | 75 | 1019.3 |
| 20260507014523 | 66 | 24 | 0.9 | 5.2 | 0.00 | 0.00 | 0.00 | 74 | 1019.3 |
| 20260507013023 | 66 | 40 | 1.7 | 6.1 | 0.00 | 0.00 | 0.00 | 74 | 1019.3 |
| 20260507011523 | 67 | 301 | 3.5 | 7.8 | 0.00 | 0.00 | 0.00 | 73 | 1019.3 |
| 20260507010026 | 68 | 25 | 1.7 | 5.2 | 0.00 | 0.00 | 0.00 | 72 | 1019.2 |
| 20260507004522 | 68 | 21 | 1.7 | 7.0 | 0.00 | 0.00 | 0.00 | 72 | 1019.1 |
| 20260507003022 | 69 | 7 | 2.6 | 5.2 | 0.00 | 0.00 | 0.00 | 70 | 1019.1 |
| 20260507001518 | 69 | 74 | 0.0 | 0.9 | 0.00 | 0.00 | 0.00 | 69 | 1019.1 |
| 20260507000019 | 69 | 81 | 0.9 | 3.5 | 0.00 | 0.00 | 0.00 | 69 | 1019.1 |
| 20260506234520 | 69 | 92 | 0.0 | 0.9 | 0.00 | 0.00 | 0.00 | 66 | 1019.1 |
| 20260506233017 | 69 | 102 | 0.0 | 6.1 | 0.00 | 0.00 | 0.00 | 67 | 1019.1 |
| 20260506231517 | 69 | 75 | 0.0 | 3.5 | 0.00 | 0.00 | 0.00 | 68 | 1019.1 |
| 20260506230024 | 70 | 73 | 0.0 | 3.5 | 0.00 | 0.00 | 0.00 | 68 | 1019.3 |
| 20260506224517 | 70 | 69 | 0.9 | 4.3 | 0.00 | 0.00 | 0.00 | 67 | 1019.4 |
| 20260506223014 | 69 | 92 | 0.0 | 5.2 | 0.00 | 0.00 | 0.00 | 67 | 1019.5 |
| 20260506221514 | 69 | 78 | 0.0 | 6.1 | 0.00 | 0.00 | 0.00 | 67 | 1019.7 |
| 20260506220016 | 69 | 101 | 0.0 | 6.1 | 0.00 | 0.00 | 0.00 | 67 | 1019.7 |
| 20260506214510 | 68 | 105 | 0.0 | 3.5 | 0.00 | 0.00 | 0.00 | 71 | 1019.7 |
| 20260506213007 | 68 | 93 | 0.9 | 5.2 | 0.00 | 0.00 | 0.00 | 68 | 1019.8 |
| 20260506211506 | 67 | 89 | 0.0 | 5.2 | 0.00 | 0.00 | 0.00 | 72 | 1019.9 |
| 20260506210005 | 67 | 85 | 0.0 | 7.0 | 0.00 | 0.00 | 0.00 | 71 | 1020.1 |
| 20260506204503 | 66 | 88 | 0.0 | 4.3 | 0.00 | 0.00 | 0.00 | 71 | 1020.2 |
| 20260506203002 | 67 | 98 | 0.0 | 7.0 | 0.00 | 0.00 | 0.00 | 71 | 1020.1 |
| 20260506201507 | 66 | 93 | 1.7 | 5.2 | 0.00 | 0.00 | 0.00 | 73 | 1020.0 |
| 20260506200100 | 66 | 75 | 2.6 | 7.0 | 0.00 | 0.00 | 0.00 | 72 | 1020.3 |
| 20260506194559 | 66 | 97 | 1.7 | 6.1 | 0.00 | 0.00 | 0.00 | 73 | 1020.5 |
| 20260506193104 | 66 | 89 | 2.6 | 6.1 | 0.00 | 0.00 | 0.00 | 74 | 1020.6 |
| 20260506191611 | 65 | 107 | 1.7 | 5.2 | 0.00 | 0.00 | 0.00 | 74 | 1020.6 |
| 20260506190055 | 65 | 91 | 0.0 | 4.3 | 0.00 | 0.00 | 0.00 | 74 | 1020.5 |
| 20260506184604 | 64 | 105 | 2.6 | 6.1 | 0.00 | 0.00 | 0.00 | 77 | 1020.5 |
| 20260506183046 | 63 | 96 | 1.7 | 4.3 | 0.00 | 0.00 | 0.00 | 78 | 1020.5 |
| 20260506181544 | 63 | 124 | 3.5 | 5.2 | 0.00 | 0.00 | 0.00 | 80 | 1020.5 |
| 20260506180042 | 61 | 69 | 1.7 | 4.3 | 0.00 | 0.00 | 0.00 | 82 | 1020.6 |
| 20260506174537 | 60 | 77 | 0.0 | 0.0 | 0.00 | 0.00 | 0.00 | 81 | 1020.6 |
| 20260506173043 | 60 | 77 | 0.9 | 3.5 | 0.00 | 0.00 | 0.00 | 82 | 1020.7 |
| 20260506171548 | 60 | 58 | 0.9 | 4.3 | 0.00 | 0.00 | 0.00 | 82 | 1020.5 |
| 20260506170038 | 59 | 73 | 0.9 | 3.5 | 0.00 | 0.00 | 0.00 | 85 | 1020.5 |
| 20260506164530 | 58 | 78 | 0.0 | 3.5 | 0.00 | 0.00 | 0.00 | 85 | 1020.6 |
| 20260506163028 | 58 | 78 | 0.0 | 0.0 | 0.00 | 0.00 | 0.00 | 86 | 1020.8 |
| 20260506161525 | 57 | 77 | 0.0 | 0.9 | 0.00 | 0.00 | 0.00 | 85 | 1020.8 |
| 20260506160022 | 57 | 77 | 0.0 | 3.5 | 0.00 | 0.00 | 0.00 | 86 | 1020.6 |
| 20260506154522 | 57 | 77 | 0.0 | 3.5 | 0.00 | 0.00 | 0.00 | 86 | 1020.4 |
| 20260506153020 | 56 | 235 | 0.9 | 3.5 | 0.00 | 0.00 | 0.00 | 88 | 1020.0 |
| 20260506151523 | 55 | 273 | 0.0 | 0.9 | 0.00 | 0.00 | 0.00 | 90 | 1020.2 |
| 20260506150015 | 55 | 273 | 0.0 | 0.0 | 0.00 | 0.00 | 0.00 | 89 | 1020.7 |
| 20260506144512 | 54 | 273 | 0.0 | 0.0 | 0.00 | 0.00 | 0.00 | 89 | 1020.5 |
| 20260506143009 | 54 | 273 | 0.0 | 0.0 | 0.00 | 0.00 | 0.00 | 89 | 1020.6 |
| 20260506141506 | 54 | 275 | 0.0 | 0.0 | 0.00 | 0.00 | 0.00 | 89 | 1020.1 |
| 20260506140003 | 54 | 275 | 0.0 | 0.0 | 0.00 | 0.00 | 0.00 | 89 | 1019.6 |
| 20260506134502 | 54 | 275 | 0.0 | 0.0 | 0.00 | 0.00 | 0.00 | 90 | 1019.5 |
| 20260506133100 | 54 | 275 | 0.0 | 0.0 | 0.00 | 0.00 | 0.00 | 89 | 1019.6 |
| 20260506131612 | 54 | 275 | 0.0 | 0.0 | 0.00 | 0.00 | 0.00 | 89 | 1019.4 |
| 20260506130056 | 55 | 275 | 0.0 | 0.9 | 0.00 | 0.00 | 0.00 | 89 | 1019.2 |
| 20260506124552 | 55 | 275 | 0.0 | 0.0 | 0.00 | 0.00 | 0.00 | 89 | 1018.9 |
| 20260506123053 | 55 | 275 | 0.0 | 0.0 | 0.00 | 0.00 | 0.00 | 89 | 1018.9 |
| 20260506121556 | 56 | 275 | 0.0 | 0.0 | 0.00 | 0.00 | 0.00 | 89 | 1018.8 |
| 20260506120053 | 56 | 275 | 0.0 | 0.0 | 0.00 | 0.00 | 0.00 | 89 | 1018.9 |
| 20260506114554 | 55 | 275 | 0.0 | 2.6 | 0.00 | 0.00 | 0.00 | 89 | 1018.7 |
| 20260506113048 | 55 | 293 | 0.0 | 4.3 | 0.00 | 0.00 | 0.00 | 89 | 1018.7 |
| 20260506111547 | 55 | 36 | 0.0 | 0.0 | 0.00 | 0.00 | 0.00 | 89 | 1018.6 |
| 20260506110045 | 55 | 36 | 0.0 | 0.0 | 0.00 | 0.00 | 0.00 | 89 | 1018.4 |
| 20260506104545 | 55 | 36 | 0.0 | 0.0 | 0.00 | 0.00 | 0.00 | 89 | 1018.1 |
| 20260506103041 | 55 | 36 | 0.0 | 0.0 | 0.00 | 0.00 | 0.00 | 89 | 1017.9 |
| 20260506101543 | 56 | 36 | 0.0 | 0.0 | 0.00 | 0.00 | 0.00 | 89 | 1017.8 |
| 20260506100042 | 56 | 36 | 0.0 | 0.0 | 0.00 | 0.00 | 0.00 | 89 | 1017.7 |
| 20260506094536 | 56 | 36 | 0.0 | 0.0 | 0.00 | 0.00 | 0.00 | 89 | 1017.6 |
| 20260506093034 | 56 | 36 | 0.0 | 0.0 | 0.00 | 0.00 | 0.00 | 89 | 1017.4 |
| 20260506091534 | 56 | 36 | 0.0 | 0.0 | 0.00 | 0.00 | 0.00 | 89 | 1017.4 |
| 20260506090033 | 56 | 36 | 0.0 | 0.0 | 0.00 | 0.00 | 0.00 | 89 | 1017.4 |
| 20260506084537 | 56 | 36 | 0.0 | 0.0 | 0.00 | 0.00 | 0.00 | 88 | 1017.3 |
| 20260506083030 | 56 | 36 | 0.0 | 0.0 | 0.00 | 0.00 | 0.00 | 88 | 1017.3 |
| 20260506081529 | 56 | 36 | 0.0 | 0.9 | 0.00 | 0.00 | 0.00 | 89 | 1017.3 |
| 20260506073023 | 57 | 40 | 0.0 | 1.7 | 0.00 | 0.00 | 0.00 | 90 | 1017.0 |
| 20260506071522 | 57 | 40 | 0.0 | 0.0 | 0.00 | 0.00 | 0.00 | 90 | 1016.9 |
| 20260506061519 | 57 | 40 | 0.0 | 0.0 | 0.00 | 0.00 | 0.00 | 90 | 1016.7 |
| 20260506044527 | 56 | 40 | 0.0 | 0.0 | 0.00 | 0.00 | 0.00 | 88 | 1016.3 |
| 20260506043015 | 56 | 40 | 0.0 | 0.0 | 0.00 | 0.00 | 0.00 | 87 | 1016.2 |
| 20260506041515 | 57 | 40 | 0.0 | 0.0 | 0.00 | 0.00 | 0.00 | 86 | 1015.9 |
| 20260506040014 | 58 | 40 | 0.0 | 0.0 | 0.00 | 0.00 | 0.00 | 85 | 1015.6 |
| 20260506034518 | 59 | 40 | 0.0 | 0.0 | 0.00 | 0.00 | 0.00 | 83 | 1015.5 |
| 20260506033013 | 61 | 40 | 0.0 | 0.0 | 0.00 | 0.00 | 0.00 | 80 | 1015.2 |
| 20260506031527 | 62 | 40 | 0.0 | 0.0 | 0.00 | 0.00 | 0.00 | 77 | 1015.0 |